MST,Max TemperatureF,Mean TemperatureF,Min TemperatureF,Max Dew PointF,MeanDew PointF,Min DewpointF,Max Humidity, Mean Humidity, Min Humidity, Max Sea Level PressureIn, Mean Sea Level PressureIn, Min Sea Level PressureIn, Max VisibilityMiles, Mean VisibilityMiles, Min VisibilityMiles, Max Wind SpeedMPH, Mean Wind SpeedMPH, Max Gust SpeedMPH,PrecipitationIn, CloudCover, Events, WindDirDegrees
2013-1-1,44,35,26,24,21,16,78,60,35,30.24,30.18,30.11,10,10,10,9,5,,0.00,0,,127
2013-1-2,50,38,26,25,21,18,74,52,32,30.12,30.07,30.00,10,10,10,12,4,,0.00,0,,112
2013-1-3,46,38,30,30,24,18,81,61,42,30.20,30.10,30.01,10,10,10,14,5,17,0.00,4,Snow,134
2013-1-4,46,37,28,28,26,21,86,68,43,30.31,30.24,30.18,10,10,10,10,5,,0.00,3,,107
2013-1-5,55,42,28,28,20,7,82,51,14,30.36,30.28,30.22,10,10,10,10,3,,0.00,0,,133
2013-1-6,55,44,32,22,18,14,54,38,22,30.25,30.10,29.93,10,10,10,17,6,,0.00,0,,122
2013-1-7,53,42,32,23,20,7,64,44,15,29.90,29.84,29.75,10,10,10,17,4,,0.00,3,,268
2013-1-8,57,47,37,27,22,18,60,41,25,30.07,29.95,29.55,10,10,10,14,5,,0.00,2,,257
2013-1-9,60,48,37,19,16,10,48,30,15,30.23,30.12,30.04,10,10,10,13,6,18,0.00,2,,144
2013-1-10,64,50,35,19,16,12,44,28,15,30.05,29.93,29.78,10,10,10,38,9,48,0.00,6,,207
2013-1-11,48,38,27,32,15,-2,87,45,14,29.99,29.91,29.75,10,10,10,29,17,43,0.00,4,Rain-Snow,279
2013-1-12,37,29,21,7,5,3,48,36,25,30.10,30.02,29.94,10,10,10,20,8,29,0.00,1,,253
2013-1-13,42,30,18,6,4,-2,57,36,16,30.12,30.04,29.95,10,10,10,14,5,21,0.00,0,,221
2013-1-14,37,28,19,3,2,-2,49,35,22,30.18,30.08,30.00,10,10,10,16,9,26,0.00,1,,273
2013-1-15,37,27,17,3,-1,-6,49,32,16,30.37,30.29,30.17,10,10,10,8,5,,0.00,0,,100
2013-1-16,51,38,24,7,1,-2,31,23,14,30.39,30.31,30.23,10,10,10,15,8,21,0.00,0,,123
2013-1-17,60,45,30,12,8,3,34,25,14,30.33,30.25,30.18,10,10,10,13,6,,0.00,1,,95
2013-1-18,62,46,30,16,12,9,47,27,14,30.29,30.21,30.13,10,10,10,7,3,,0.00,5,,128
2013-1-19,66,52,39,24,18,11,39,27,16,30.25,30.17,30.10,10,10,10,7,2,,0.00,0,,196
2013-1-20,68,55,42,29,24,18,46,32,22,30.18,30.10,30.01,10,10,10,6,2,,0.00,0,,124
2013-1-21,68,56,43,31,27,24,51,36,23,30.17,30.07,30.01,10,10,10,9,2,,0.00,0,,168
2013-1-22,69,56,42,30,27,23,57,35,17,30.19,30.14,30.08,10,10,10,10,4,,0.00,0,,171
2013-1-23,71,58,44,28,26,25,46,32,19,30.25,30.18,30.12,10,10,10,12,4,,0.00,5,,157
2013-1-24,66,60,53,50,36,28,59,42,31,30.29,30.20,30.14,10,10,10,10,5,,0.00,8,Rain,291
2013-1-25,68,58,48,48,39,37,77,49,33,30.18,30.09,29.98,10,10,10,13,6,,0.00,7,,136
2013-1-26,63,56,50,52,46,40,93,73,43,29.98,29.94,29.90,10,10,6,21,10,32,0.19,7,Rain,207
2013-1-27,57,52,46,47,43,37,96,74,51,30.08,29.98,29.93,10,10,6,15,4,,0.06,7,Rain,198
2013-1-28,53,43,32,39,36,30,93,68,47,29.99,29.93,29.86,10,8,1,31,12,41,0.14,6,Rain-Snow,226
2013-1-29,42,36,30,30,23,18,93,63,36,30.17,30.06,29.95,10,9,2,23,14,34,0.09,3,Snow,280
2013-1-30,48,39,30,21,16,9,69,43,22,30.33,30.25,30.19,10,10,10,12,7,21,0.00,2,,284
2013-1-31,55,44,32,27,21,16,60,41,23,30.25,30.19,30.13,10,10,10,10,5,,0.00,5,,111